{"data":{"norad_id":69483,"intl_designator":"2026-131F","name":"STARLINK-37869","alt_names":[],"object_type":"PAYLOAD","status":"ACTIVE","operator":null,"country":"US","launch_date":"2026-06-11","launch_site_code":"AFWTR","launch_vehicle":null,"mission":null,"orbit_class":"UNKNOWN","rcs_meters":null,"size_class":null,"mass_kg":null,"dimensions":null,"purposes":["comms"],"wikipedia_slug":null,"has_3d_model":false,"image_url":null,"decayed_at":null,"tle_current":{"epoch":"2026-09-20T00:49:52.756032Z","epoch_age_seconds":65710,"freshness":"FRESH","line1":"1 69483U 26131F   26263.03463838  .00028400  00000+0  87853-3 0  9994","line2":"2 69483  97.2841 283.8711 0000873  71.1154 289.0183 15.33451911 16821","mean_motion":15.33451911,"eccentricity":8.73e-5,"inclination_deg":97.2841,"raan_deg":283.8711,"arg_perigee_deg":71.1154,"mean_anomaly_deg":289.0183,"bstar":0.00087853,"rev_number":1682,"period_min":93.905781437968,"perigee_km":464.92516079751,"apogee_km":466.12006376581,"semimajor_km":6843.6596122817,"source":"CELESTRAK","updated_at":"2026-09-20T09:00:44.206069Z"}}}